Regional Weather Roundup
Issued by NWS

Home | Current Version | Previous Version | Graphics & Text | Print | Product List | Glossary On
Versions: 1 2 3 4 5 6 7 8 9 10 11 12 13 14 15 16 17 18 19 20 21 22 23 24 25 26 27 28
000
ASUS45 KBOU 212110
RWRCO

WEATHER ROUNDUP FOR COLORADO
NATIONAL WEATHER SERVICE DENVER/BOULDER CO
200 PM MST TUE NOV 21 2017

NOTE: "FAIR" INDICATES FEW OR NO CLOUDS BELOW 12000 FEET WITH NO
SIGNIFICANT WEATHER AND/OR OBSTRUCTIONS TO VISIBILITY.

COZ001>005-013-030-031-212200-
...NORTHWEST COLORADO...

CITY           SKY/WX    TMP DP  RH WIND       PRES   REMARKS
CRAIG          CLOUDY    50  34  54 W9        30.33R
HAYDEN         PTSUNNY   46  35  65 CALM      30.35S
MEEKER         FAIR      51  35  54 S3        30.34S
RABBIT EARS PA SNOW      28  28 100 W7G16     30.39R VSB<1/4 WCI  21
STEAMBOAT SPGS CLOUDY    40  34  79 E3        30.34S
WALDEN         FAIR      39  30  70 SW3       30.34F
$$

COZ006>008-011-212200-
...WEST CENTRAL VALLEYS...

CITY           SKY/WX    TMP DP  RH WIND       PRES   REMARKS
GRAND JUNCTION FAIR      55  21  26 CALM      30.32F
MONTROSE       FAIR      52  23  32 W5        30.35F
EAGLE          PTSUNNY   51  32  48 E5        30.36F
RIFLE          CLOUDY    49  32  52 N3        30.36F
DELTA          FAIR      56  21  25 CALM      30.33F
NUCLA          FAIR      57  19  23 NW5       30.35F
$$

COZ017>023-064>068-212200-
...SOUTHWEST COLORADO...

CITY           SKY/WX    TMP DP  RH WIND       PRES   REMARKS
DURANGO        FAIR      55  22  27 SW6       30.27F
CORTEZ         FAIR      63  30  28 NW14G24   30.28S
PAGOSA SPRINGS FAIR      56  18  23 SW7       30.29F
TELLURIDE      FAIR      47  25  42 N5        30.41S
WOLF CREEK PAS FAIR      36  16  44 CALM      30.50S
$$

COZ009-010-012-014-032>034-037-058>063-212200-
...CENTRAL COLORADO...

CITY           SKY/WX    TMP DP  RH WIND       PRES   REMARKS
ASPEN          PTSUNNY   44  31  60 VRB7      30.38S
BUENA VISTA    CLOUDY    53  20  28 NW7       30.29R
COPPER MTN     LGT SNOW  30  27  86 MISG      30.42R
BERTHOUD PASS  CLOUDY    21  10  63 NW36G52   30.34R WCI   2
COTTONWOOD PAS FAIR      46  21  36 W17G24    30.35R
GUNNISON       FAIR      50  24  36 N14G22    30.33F
KREMMLING      CLOUDY    45  36  70 CALM      30.37S
LEADVILLE      PTSUNNY   35  23  61 NW15G28   30.37R WCI  25
MONARCH PASS   CLOUDY    28  27  93 W22G29    30.52R WCI  15
SALIDA         FAIR      56  20  24 W5        30.34R
SUNLIGHT       CLOUDY    30  28  93 MISG      30.48S
WILKERSON PASS FAIR      32  18  55 NW6G20    30.40S WCI  26
$$

COZ069>075-212200-
...SAN LUIS VALLEY/SANGRE DE CRISTO MOUNTAINS...

CITY           SKY/WX    TMP DP  RH WIND       PRES   REMARKS
ALAMOSA        FAIR      57  24  28 N18       30.27S
DEL NORTE      FAIR      55  22  27 N12G20    30.31R
LA VETA PASS   FAIR      34  28  80 N5          N/A  WCI  30
SAGUACHE       PTSUNNY   52  27  37 NW24G32   30.30F
$$

COZ035-036-038>040-212200-
...NORTHERN COLORADO FRONT RANGE...

CITY           SKY/WX    TMP DP  RH WIND       PRES   REMARKS
DENVER INTL AP PTSUNNY   42  32  67 VRB3      30.31F
DMNS CITY PARK   N/A     47  32  56 SE6G12    30.30F
AURORA         PTSUNNY   43  32  65 E5        30.31F
FRONT RANGE AP PTSUNNY   43  34  70 CALM      30.32F
ERIE MUNI ARPT CLOUDY    45  32  61 CALM      30.36S
BOULDER MUN AP CLOUDY    43  34  70 E5        30.30S
CENTENNIAL     PTSUNNY   44  33  65 SE8       30.30F
BROOMFIELD     PTSUNNY   43  34  70 SE5       30.31
FORT COLLINS   PTSUNNY   42  35  76 SW7       30.31S
LONGMONT       CLOUDY    46  34  64 S5        30.32S
$$

COZ041-046-047-076>085-087-088-212200-
...PIKES PEAK/PALMER DIVIDE AND SOUTHERN FOOTHILLS...

CITY           SKY/WX    TMP DP  RH WIND       PRES   REMARKS
COLO. SPRINGS  PTSUNNY   49  32  52 CALM      30.30S
A. F. ACADEMY  MOSUNNY   45  32  61 N7        30.30R
SCHRIEVER AFB  FAIR      44  31  60 E10       30.31S
CHEYENNE MTN   CLOUDY    42  33  70 S12       30.25S
ELLICOTT         N/A    N/A N/A N/A NE7       30.30F
FALCON         FAIR      45  32  60 N8        30.31S
FORT CARSON    NOT AVBL
LIMON          FAIR      47  27  45 N12       30.31F
MONUMENT HILL  CLOUDY    36  32  87 NE3       30.32F
CANON CITY     CLOUDY    52  34  50 SE12G17   30.30S
WALSENBURG     FAIR      50  36  57 CALM      30.30F
TRINIDAD       PTSUNNY   51  36  56 NE9       30.31F
$$

COZ042>045-048>051-090-091-212200-
...NORTHEAST COLORADO...

CITY           SKY/WX    TMP DP  RH WIND       PRES   REMARKS
GREELEY ARPT   FAIR      46  31  55 SW10      30.32S
AKRON          FAIR      44  26  49 NW7       30.31S
BURLINGTON     FAIR      47  27  45 N13       30.31R
WRAY           NOT AVBL
YUMA           FAIR      43  28  56 NW9       30.31S
STERLING       FAIR      48  30  49 N8        30.29S
HOLYOKE        FAIR      46  27  46 N10       30.32R
FORT MORGAN    FAIR      49  25  39 CALM      30.31F
$$

COZ086-089-092>099-212200-
...SOUTHEAST COLORADO...

CITY           SKY/WX    TMP DP  RH WIND       PRES   REMARKS
PUEBLO         PTSUNNY   53  35  50 E6        30.29F
LA JUNTA       FAIR      54  28  36 CALM      30.31S
LAMAR          FAIR      55  26  32 NE8       30.29S
SPRINGFIELD      N/A     51  27  39 NE18      30.29R
$$




USA.gov is the U.S. government's official web portal to all federal, state and local government web resources and services.